Regional Weather Roundup
Issued by NWS

Home | Current Version | Previous Version | Graphics & Text | Print | Product List | Glossary On
Versions: 1 2 3 4 5 6 7 8 9 10 11 12 13 14 15 16 17 18 19 20 21 22 23 24 25 26 27 28 29 30 31 32 33 34 35 36 37 38 39 40 41 42 43 44 45 46 47 48 49 50
000
ASUS43 KLMK 051602
RWRKY
KENTUCKY REGIONAL WEATHER ROUNDUP
NATIONAL WEATHER SERVICE LOUISVILLE KY
1200 PM EDT THU MAY 05 2016

NOTE "FAIR" INDICATES FEW OR NO CLOUDS BELOW 12,000 FEET
WITH NO SIGNIFICANT WEATHER AND/OR OBSTRUCTIONS TO VISIBILITY.

KYZ001>023-026-027-061>063-070>075-051700-
WESTERN AND SOUTH CENTRAL KENTUCKY

CITY           SKY/WX    TMP DP  RH WIND       PRES   REMARKS
PADUCAH        PTSUNNY   60  42  51 N14       29.94R
HENDERSON      CLOUDY    48  37  66 NW9       29.94R
OWENSBORO      PTSUNNY   51  40  66 N14       29.93R
HOPKINSVILLE   CLOUDY    53  41  64 NW12G20   29.91R
BOWLING GREEN  CLOUDY    52  39  61 N10       29.88R
GLASGOW        NOT AVBL
$$

KYZ024-025-028>034-038-045-046-053-051700-
NORTH CENTRAL KENTUCKY

CITY           SKY/WX    TMP DP  RH WIND       PRES   REMARKS
LOUISVILLE/SDF CLOUDY    50  39  66 N16       29.87R
LOUISVILLE/LOU CLOUDY    50  39  66 N10G17    29.88R
FORT KNOX      CLOUDY    48  40  75 N10       29.85R
$$

KYZ035>037-039>044-047>052-055>060-089>105-051700-
NORTHEAST KENTUCKY

CITY           SKY/WX    TMP DP  RH WIND       PRES   REMARKS
LEXINGTON      CLOUDY    49  39  68 N9        29.83R
COVINGTON      CLOUDY    51  37  58 NW8       29.84R
FRANKFORT      CLOUDY    49  37  63 N9        29.84R
$$

KYZ054-064>069-076>088-106>120-051700-
SOUTHEAST KENTUCKY

CITY           SKY/WX    TMP DP  RH WIND       PRES   REMARKS
JACKSON        CLOUDY    47  40  76 VRB3      29.79R
LONDON         PTSUNNY   49  42  77 VRB7      29.79S
SOMERSET       NOT AVBL
MIDDLESBORO    CLOUDY    48  45  89 CALM      29.79S
MONTICELLO     CLOUDY    48  44  86 N15       29.83R
$$




USA.gov is the U.S. government's official web portal to all federal, state and local government web resources and services.